Station Historical Data
Daily Summary for August 26, 2017 Units:  English    Metric   Both
Next Day »
Daily Weekly Monthly Yearly Custom
  High: Low: Average:
Temperature: 95.5 °F 72.9 °F 81.9 °F
Dew Point: 55.0 °F 44.2 °F 48.2 °F
Humidity: 44% 18% 32%
Wind Speed: 16.0mph 0.0mph 3.1mph
Wind Gust: 19.0mph - -
Wind- - SSE
Pressure: 29.95 in 29.87 in -
Precipitation: 0.00 in    
Historical Graphs
 
 
Tabular Data for August 26, 2017
Time Temperature Dew Point Pressure Wind Wind Speed Wind Gust Humidity Rainfall Rate (Hourly) solar Conditions
00:03 75.5 °F 48.1 °F 29.87 in Calm   13.0 mph 38% 0.00 in 0.00 W/m2
00:08 75.5 °F 48.1 °F 29.87 in East 8.0 mph 16.0 mph 38% 0.00 in 0.00 W/m2
00:13 75.5 °F 48.1 °F 29.87 in ESE 7.0 mph 12.0 mph 38% 0.00 in 0.00 W/m2
00:18 75.4 °F 48.0 °F 29.87 in East 1.0 mph 16.0 mph 38% 0.00 in 0.00 W/m2
00:23 75.4 °F 48.0 °F 29.87 in East 7.0 mph 15.0 mph 38% 0.00 in 0.00 W/m2
00:29 75.4 °F 48.0 °F 29.87 in Calm   12.0 mph 38% 0.00 in 0.00 W/m2
00:34 75.4 °F 48.0 °F 29.88 in Calm   13.0 mph 38% 0.00 in 0.00 W/m2
00:39 75.3 °F 48.0 °F 29.88 in Calm   14.0 mph 38% 0.00 in 0.00 W/m2
00:44 75.3 °F 48.0 °F 29.88 in East 6.0 mph 13.0 mph 38% 0.00 in 0.00 W/m2
00:49 75.3 °F 48.0 °F 29.88 in ENE 2.0 mph 15.0 mph 38% 0.00 in 0.00 W/m2
00:54 75.2 °F 47.9 °F 29.88 in Calm   12.0 mph 38% 0.00 in 0.00 W/m2
00:59 75.2 °F 47.9 °F 29.88 in East 9.0 mph 15.0 mph 38% 0.00 in 0.00 W/m2
01:04 75.1 °F 47.8 °F 29.88 in East 5.0 mph 15.0 mph 38% 0.00 in 0.00 W/m2
01:09 75.1 °F 47.8 °F 29.88 in Calm   16.0 mph 38% 0.00 in 0.00 W/m2
01:14 75.1 °F 47.8 °F 29.88 in East 7.0 mph 15.0 mph 38% 0.00 in 0.00 W/m2
01:19 75.1 °F 47.8 °F 29.88 in ESE 8.0 mph 18.0 mph 38% 0.00 in 0.00 W/m2
01:24 75.0 °F 48.4 °F 29.88 in East 7.0 mph 12.0 mph 39% 0.00 in 0.00 W/m2
01:29 75.0 °F 48.4 °F 29.88 in ESE 9.0 mph 15.0 mph 39% 0.00 in 0.00 W/m2
01:34 74.9 °F 47.6 °F 29.88 in East 9.0 mph 15.0 mph 38% 0.00 in 0.00 W/m2
01:39 74.9 °F 47.6 °F 29.88 in East 1.0 mph 15.0 mph 38% 0.00 in 0.00 W/m2
01:44 74.9 °F 47.6 °F 29.88 in East 6.0 mph 15.0 mph 38% 0.00 in 0.00 W/m2
01:49 74.9 °F 48.3 °F 29.88 in East 5.0 mph 16.0 mph 39% 0.00 in 0.00 W/m2
01:54 74.9 °F 48.3 °F 29.88 in East 15.0 mph 16.0 mph 39% 0.00 in 0.00 W/m2
01:59 74.8 °F 48.2 °F 29.88 in East 8.0 mph 16.0 mph 39% 0.00 in 0.00 W/m2
02:04 74.8 °F 48.2 °F 29.88 in ESE 7.0 mph 14.0 mph 39% 0.00 in 0.00 W/m2
02:09 74.7 °F 48.1 °F 29.88 in ESE 2.0 mph 19.0 mph 39% 0.00 in 0.00 W/m2
02:14 74.7 °F 48.1 °F 29.88 in East 2.0 mph 13.0 mph 39% 0.00 in 0.00 W/m2
02:19 74.6 °F 48.0 °F 29.88 in ESE 8.0 mph 18.0 mph 39% 0.00 in 0.00 W/m2
02:24 74.6 °F 48.0 °F 29.89 in Calm   14.0 mph 39% 0.00 in 0.00 W/m2
02:29 74.5 °F 47.9 °F 29.89 in East 8.0 mph 14.0 mph 39% 0.00 in 0.00 W/m2
02:34 74.5 °F 47.9 °F 29.89 in ESE 6.0 mph 15.0 mph 39% 0.00 in 0.00 W/m2
02:36 74.4 °F 47.9 °F 29.89 in East 8.0 mph 11.0 mph 39% 0.00 in 0.00 W/m2
02:41 74.4 °F 47.9 °F 29.89 in ESE 4.0 mph 12.0 mph 39% 0.00 in 0.00 W/m2
02:46 74.3 °F 47.8 °F 29.89 in Calm   12.0 mph 39% 0.00 in 0.00 W/m2
02:51 74.3 °F 47.8 °F 29.89 in East 11.0 mph 13.0 mph 39% 0.00 in 0.00 W/m2
02:56 74.2 °F 47.7 °F 29.89 in East 11.0 mph 11.0 mph 39% 0.00 in 0.00 W/m2
03:01 74.1 °F 47.6 °F 29.89 in East 5.0 mph 16.0 mph 39% 0.00 in 0.00 W/m2
03:06 74.1 °F 47.6 °F 29.89 in ESE 9.0 mph 14.0 mph 39% 0.00 in 0.00 W/m2
03:11 74.0 °F 47.5 °F 29.89 in East 8.0 mph 9.0 mph 39% 0.00 in 0.00 W/m2
03:16 74.0 °F 47.5 °F 29.89 in East 7.0 mph 16.0 mph 39% 0.00 in 0.00 W/m2
03:21 73.9 °F 47.4 °F 29.89 in ESE 7.0 mph 11.0 mph 39% 0.00 in 0.00 W/m2
03:26 73.9 °F 47.4 °F 29.89 in East 4.0 mph 11.0 mph 39% 0.00 in 0.00 W/m2
03:31 73.8 °F 48.0 °F 29.89 in ESE 5.0 mph 12.0 mph 40% 0.00 in 0.00 W/m2
03:36 73.8 °F 48.0 °F 29.89 in SE 8.0 mph 13.0 mph 40% 0.00 in 0.00 W/m2
03:41 73.8 °F 48.0 °F 29.89 in ESE 11.0 mph 13.0 mph 40% 0.00 in 0.00 W/m2
03:46 73.7 °F 47.9 °F 29.89 in ESE 11.0 mph 14.0 mph 40% 0.00 in 0.00 W/m2
03:51 73.6 °F 47.8 °F 29.89 in East 11.0 mph 13.0 mph 40% 0.00 in 0.00 W/m2
03:56 73.5 °F 47.7 °F 29.88 in East 15.0 mph 15.0 mph 40% 0.00 in 0.00 W/m2
04:01 73.5 °F 47.7 °F 29.89 in East 11.0 mph 14.0 mph 40% 0.00 in 0.00 W/m2
04:06 73.4 °F 47.6 °F 29.89 in ESE 7.0 mph 13.0 mph 40% 0.00 in 0.00 W/m2
04:11 73.4 °F 47.6 °F 29.89 in East 7.0 mph 19.0 mph 40% 0.00 in 0.00 W/m2
04:16 73.4 °F 47.6 °F 29.88 in East 5.0 mph 12.0 mph 40% 0.00 in 0.00 W/m2
04:21 73.4 °F 47.6 °F 29.88 in ESE 11.0 mph 14.0 mph 40% 0.00 in 0.00 W/m2
04:26 73.4 °F 47.6 °F 29.88 in East 8.0 mph 14.0 mph 40% 0.00 in 0.00 W/m2
04:32 73.3 °F 47.5 °F 29.89 in ENE 2.0 mph 14.0 mph 40% 0.00 in 0.00 W/m2
04:37 73.4 °F 47.6 °F 29.88 in ESE 9.0 mph 16.0 mph 40% 0.00 in 0.00 W/m2
04:42 73.4 °F 47.6 °F 29.89 in East 2.0 mph 9.0 mph 40% 0.00 in 0.00 W/m2
04:47 73.4 °F 47.6 °F 29.89 in East 9.0 mph 16.0 mph 40% 0.00 in 0.00 W/m2
04:52 73.4 °F 47.6 °F 29.89 in East 2.0 mph 12.0 mph 40% 0.00 in 0.00 W/m2
04:57 73.4 °F 47.6 °F 29.89 in Calm   14.0 mph 40% 0.00 in 0.00 W/m2
05:02 73.4 °F 47.6 °F 29.89 in ESE 8.0 mph 18.0 mph 40% 0.00 in 0.00 W/m2
05:07 73.4 °F 47.6 °F 29.89 in Calm   12.0 mph 40% 0.00 in 0.00 W/m2
05:12 73.3 °F 47.5 °F 29.89 in East 6.0 mph 12.0 mph 40% 0.00 in 0.00 W/m2
05:17 73.3 °F 47.5 °F 29.89 in ESE 12.0 mph 15.0 mph 40% 0.00 in 0.00 W/m2
05:22 73.3 °F 47.5 °F 29.89 in ESE 7.0 mph 12.0 mph 40% 0.00 in 0.00 W/m2
05:27 73.3 °F 46.9 °F 29.89 in ESE 1.0 mph 9.0 mph 39% 0.00 in 0.00 W/m2
05:32 73.3 °F 47.5 °F 29.89 in ESE 5.0 mph 12.0 mph 40% 0.00 in 0.00 W/m2
05:37 73.3 °F 47.5 °F 29.90 in East 5.0 mph 14.0 mph 40% 0.00 in 0.00 W/m2
05:42 73.2 °F 47.5 °F 29.90 in East 7.0 mph 14.0 mph 40% 0.00 in 0.00 W/m2
05:47 73.1 °F 47.4 °F 29.90 in ESE 5.0 mph 11.0 mph 40% 0.00 in 0.00 W/m2
05:52 73.1 °F 47.4 °F 29.90 in ESE 6.0 mph 15.0 mph 40% 0.00 in 0.00 W/m2
05:57 73.0 °F 47.3 °F 29.90 in ESE 8.0 mph 13.0 mph 40% 0.00 in 0.00 W/m2
06:02 73.0 °F 47.3 °F 29.90 in ESE 9.0 mph 14.0 mph 40% 0.00 in 0.00 W/m2
06:07 73.0 °F 47.3 °F 29.90 in East 6.0 mph 15.0 mph 40% 0.00 in 0.00 W/m2
06:12 73.0 °F 47.3 °F 29.90 in Calm   15.0 mph 40% 0.00 in 0.00 W/m2
06:17 73.0 °F 47.3 °F 29.90 in East 7.0 mph 18.0 mph 40% 0.00 in 0.00 W/m2
06:22 72.9 °F 47.2 °F 29.90 in East 11.0 mph 15.0 mph 40% 0.00 in 0.00 W/m2
06:27 72.9 °F 47.2 °F 29.91 in Calm   14.0 mph 40% 0.00 in 5.00 W/m2
06:32 72.9 °F 47.2 °F 29.91 in ESE 1.0 mph 14.0 mph 40% 0.00 in 7.00 W/m2
06:37 72.9 °F 47.2 °F 29.91 in East 5.0 mph 14.0 mph 40% 0.00 in 11.00 W/m2
06:42 72.9 °F 46.5 °F 29.92 in East 1.0 mph 15.0 mph 39% 0.00 in 14.00 W/m2
06:47 73.0 °F 47.3 °F 29.92 in ESE 8.0 mph 13.0 mph 40% 0.00 in 16.00 W/m2
06:52 73.0 °F 47.3 °F 29.92 in ESE 16.0 mph 18.0 mph 40% 0.00 in 21.00 W/m2
06:57 73.0 °F 47.3 °F 29.92 in ESE 4.0 mph 13.0 mph 40% 0.00 in 26.00 W/m2
07:02 73.1 °F 47.4 °F 29.92 in East 4.0 mph 13.0 mph 40% 0.00 in 37.00 W/m2
07:07 73.1 °F 47.4 °F 29.92 in ESE 11.0 mph 15.0 mph 40% 0.00 in 49.00 W/m2
07:12 73.1 °F 47.4 °F 29.92 in East 1.0 mph 13.0 mph 40% 0.00 in 62.00 W/m2
07:17 73.1 °F 47.4 °F 29.92 in ESE 8.0 mph 14.0 mph 40% 0.00 in 74.00 W/m2
07:22 73.1 °F 47.4 °F 29.92 in East 5.0 mph 11.0 mph 40% 0.00 in 93.00 W/m2
07:27 73.2 °F 47.5 °F 29.92 in ESE 16.0 mph 16.0 mph 40% 0.00 in 111.00 W/m2
07:33 73.2 °F 48.1 °F 29.92 in Calm   16.0 mph 41% 0.00 in 125.00 W/m2
07:38 73.3 °F 48.2 °F 29.92 in East 1.0 mph 13.0 mph 41% 0.00 in 142.00 W/m2
07:43 73.3 °F 48.2 °F 29.92 in Calm   18.0 mph 41% 0.00 in 165.00 W/m2
07:48 73.3 °F 48.2 °F 29.92 in ESE 13.0 mph 14.0 mph 41% 0.00 in 192.00 W/m2
07:53 73.4 °F 48.3 °F 29.92 in ESE 6.0 mph 16.0 mph 41% 0.00 in 211.00 W/m2
07:58 73.4 °F 48.3 °F 29.92 in Calm   12.0 mph 41% 0.00 in 230.00 W/m2
08:03 73.5 °F 49.0 °F 29.92 in ESE 5.0 mph 11.0 mph 42% 0.00 in 253.00 W/m2
08:08 73.5 °F 49.0 °F 29.92 in East 6.0 mph 9.0 mph 42% 0.00 in 274.00 W/m2
08:13 73.6 °F 49.1 °F 29.93 in ESE 6.0 mph 11.0 mph 42% 0.00 in 287.00 W/m2
08:18 73.7 °F 49.8 °F 29.93 in ESE 6.0 mph 13.0 mph 43% 0.00 in 308.00 W/m2
08:23 73.8 °F 49.9 °F 29.93 in East 12.0 mph 14.0 mph 43% 0.00 in 323.00 W/m2
08:28 73.9 °F 50.0 °F 29.93 in ESE 8.0 mph 14.0 mph 43% 0.00 in 338.00 W/m2
08:33 74.0 °F 50.1 °F 29.93 in Calm   13.0 mph 43% 0.00 in 355.00 W/m2
08:38 74.2 °F 50.3 °F 29.93 in ESE 9.0 mph 13.0 mph 43% 0.00 in 373.00 W/m2
08:43 74.4 °F 50.5 °F 29.93 in East 1.0 mph 12.0 mph 43% 0.00 in 390.00 W/m2
08:48 74.7 °F 50.7 °F 29.93 in Calm   11.0 mph 43% 0.00 in 404.00 W/m2
08:53 74.9 °F 50.9 °F 29.93 in ESE 5.0 mph 12.0 mph 43% 0.00 in 420.00 W/m2
08:58 75.1 °F 51.7 °F 29.93 in East 4.0 mph 12.0 mph 44% 0.00 in 439.00 W/m2
09:03 75.4 °F 51.4 °F 29.94 in Calm   7.0 mph 43% 0.00 in 454.00 W/m2
09:09 75.6 °F 51.5 °F 29.94 in ESE 7.0 mph 11.0 mph 43% 0.00 in 471.00 W/m2
09:14 75.9 °F 51.8 °F 29.94 in East 5.0 mph 13.0 mph 43% 0.00 in 480.00 W/m2
09:19 76.2 °F 52.1 °F 29.94 in ESE 6.0 mph 9.0 mph 43% 0.00 in 497.00 W/m2
09:24 76.6 °F 52.5 °F 29.94 in ESE 5.0 mph 7.0 mph 43% 0.00 in 515.00 W/m2
09:29 76.9 °F 52.1 °F 29.94 in Calm   9.0 mph 42% 0.00 in 527.00 W/m2
09:34 77.3 °F 53.1 °F 29.94 in Calm   9.0 mph 43% 0.00 in 543.00 W/m2
09:39 77.8 °F 52.9 °F 29.94 in Calm   6.0 mph 42% 0.00 in 557.00 W/m2
09:40 77.8 °F 52.2 °F 29.94 in Calm   9.0 mph 41% 0.00 in 561.00 W/m2
09:45 78.3 °F 52.7 °F 29.94 in Calm   7.0 mph 41% 0.00 in 575.00 W/m2
09:50 78.8 °F 53.1 °F 29.94 in Calm   8.0 mph 41% 0.00 in 589.00 W/m2
09:55 79.4 °F 53.7 °F 29.94 in ESE 5.0 mph 5.0 mph 41% 0.00 in 603.00 W/m2
10:00 79.9 °F 53.5 °F 29.94 in Calm   6.0 mph 40% 0.00 in 617.00 W/m2
10:05 80.5 °F 53.3 °F 29.95 in Calm   7.0 mph 39% 0.00 in 631.00 W/m2
10:10 81.1 °F 54.5 °F 29.95 in Calm   5.0 mph 40% 0.00 in 643.00 W/m2
10:15 81.6 °F 55.0 °F 29.95 in Calm   5.0 mph 40% 0.00 in 656.00 W/m2
10:20 82.0 °F 53.9 °F 29.95 in Calm   4.0 mph 38% 0.00 in 670.00 W/m2
10:25 82.3 °F 54.2 °F 29.95 in Calm   2.0 mph 38% 0.00 in 680.00 W/m2
10:30 82.5 °F 52.9 °F 29.95 in Calm   1.0 mph 36% 0.00 in 691.00 W/m2
10:35 83.1 °F 54.2 °F 29.95 in Calm     37% 0.00 in 701.00 W/m2
10:37 83.4 °F 51.3 °F 29.95 in Calm     33% 0.00 in 705.00 W/m2
10:42 84.0 °F 51.0 °F 29.95 in Calm     32% 0.00 in 721.00 W/m2
10:47 84.7 °F 50.8 °F 29.95 in Calm   2.0 mph 31% 0.00 in 729.00 W/m2
10:52 85.2 °F 48.5 °F 29.95 in Calm   2.0 mph 28% 0.00 in 738.00 W/m2
10:57 85.6 °F 49.7 °F 29.95 in Calm   1.0 mph 29% 0.00 in 747.00 W/m2
11:02 86.2 °F 50.2 °F 29.95 in Calm     29% 0.00 in 754.00 W/m2
11:07 86.5 °F 49.6 °F 29.95 in Calm   1.0 mph 28% 0.00 in 761.00 W/m2
11:12 87.0 °F 49.0 °F 29.95 in Calm   1.0 mph 27% 0.00 in 773.00 W/m2
11:17 87.4 °F 49.3 °F 29.95 in Calm     27% 0.00 in 782.00 W/m2
11:27 87.9 °F 49.8 °F 29.95 in Calm     27% 0.00 in 796.00 W/m2
11:32 88.3 °F 49.1 °F 29.95 in Calm   3.0 mph 26% 0.00 in 807.00 W/m2
11:37 88.7 °F 49.5 °F 29.95 in Calm   1.0 mph 26% 0.00 in 814.00 W/m2
11:42 89.2 °F 48.8 °F 29.95 in West 1.0 mph 1.0 mph 25% 0.00 in 819.00 W/m2
11:47 89.6 °F 49.2 °F 29.95 in Calm   3.0 mph 25% 0.00 in 824.00 W/m2
11:52 90.0 °F 49.5 °F 29.95 in Calm   4.0 mph 25% 0.00 in 833.00 W/m2
11:57 90.4 °F 47.6 °F 29.95 in West 3.0 mph 4.0 mph 23% 0.00 in 838.00 W/m2
12:02 90.8 °F 46.8 °F 29.95 in Calm   1.0 mph 22% 0.00 in 842.00 W/m2
12:07 91.0 °F 49.2 °F 29.95 in Calm   6.0 mph 24% 0.00 in 849.00 W/m2
12:12 91.5 °F 46.1 °F 29.95 in West 3.0 mph 7.0 mph 21% 0.00 in 853.00 W/m2
12:17 91.9 °F 47.7 °F 29.95 in Calm   5.0 mph 22% 0.00 in 854.00 W/m2
12:22 92.3 °F 48.0 °F 29.94 in Calm   1.0 mph 22% 0.00 in 858.00 W/m2
12:27 92.7 °F 47.1 °F 29.94 in Calm   4.0 mph 21% 0.00 in 861.00 W/m2
12:32 93.1 °F 47.4 °F 29.94 in WSW 2.0 mph 7.0 mph 21% 0.00 in 861.00 W/m2
12:38 93.5 °F 47.8 °F 29.94 in West 3.0 mph 4.0 mph 21% 0.00 in 865.00 W/m2
12:43 93.4 °F 47.7 °F 29.94 in WNW 1.0 mph 3.0 mph 21% 0.00 in 863.00 W/m2
12:48 93.4 °F 48.9 °F 29.94 in WNW 4.0 mph 5.0 mph 22% 0.00 in 863.00 W/m2
12:53 93.4 °F 47.7 °F 29.94 in Calm   3.0 mph 21% 0.00 in 861.00 W/m2
12:58 93.3 °F 47.6 °F 29.94 in West 3.0 mph 8.0 mph 21% 0.00 in 860.00 W/m2
13:03 93.5 °F 49.0 °F 29.94 in Calm   1.0 mph 22% 0.00 in 863.00 W/m2
13:08 93.7 °F 47.9 °F 29.94 in NW 7.0 mph 7.0 mph 21% 0.00 in 865.00 W/m2
13:13 93.8 °F 46.7 °F 29.94 in Calm   6.0 mph 20% 0.00 in 860.00 W/m2
13:18 94.2 °F 48.3 °F 29.94 in West 4.0 mph 11.0 mph 21% 0.00 in 861.00 W/m2
13:23 94.4 °F 47.2 °F 29.94 in Calm   6.0 mph 20% 0.00 in 858.00 W/m2
13:28 94.4 °F 48.5 °F 29.94 in Calm   9.0 mph 21% 0.00 in 860.00 W/m2
13:33 94.5 °F 47.3 °F 29.94 in West 1.0 mph 4.0 mph 20% 0.00 in 854.00 W/m2
13:38 94.7 °F 47.4 °F 29.94 in WSW 2.0 mph 5.0 mph 20% 0.00 in 853.00 W/m2
13:43 95.2 °F 47.8 °F 29.93 in SW 5.0 mph 9.0 mph 20% 0.00 in 849.00 W/m2
13:48 95.5 °F 49.4 °F 29.93 in SW 5.0 mph 8.0 mph 21% 0.00 in 842.00 W/m2
13:53 95.5 °F 48.1 °F 29.93 in West 5.0 mph 8.0 mph 20% 0.00 in 838.00 W/m2
13:54 95.5 °F 48.1 °F 29.93 in NW 6.0 mph 8.0 mph 20% 0.00 in 837.00 W/m2
13:59 95.3 °F 47.9 °F 29.93 in WNW 4.0 mph 7.0 mph 20% 0.00 in 831.00 W/m2
14:04 95.0 °F 46.3 °F 29.93 in Calm   12.0 mph 19% 0.00 in 831.00 W/m2
14:09 94.7 °F 46.1 °F 29.93 in Calm   5.0 mph 19% 0.00 in 824.00 W/m2
14:14 94.8 °F 47.5 °F 29.93 in WSW 3.0 mph 10.0 mph 20% 0.00 in 821.00 W/m2
14:19 94.8 °F 47.5 °F 29.93 in Calm   9.0 mph 20% 0.00 in 816.00 W/m2
14:24 94.6 °F 46.0 °F 29.92 in West 2.0 mph 9.0 mph 19% 0.00 in 809.00 W/m2
14:29 94.3 °F 45.8 °F 29.93 in West 6.0 mph 12.0 mph 19% 0.00 in 800.00 W/m2
14:34 94.2 °F 47.0 °F 29.92 in Calm   10.0 mph 20% 0.00 in 795.00 W/m2
14:39 94.2 °F 45.7 °F 29.92 in Calm   9.0 mph 19% 0.00 in 786.00 W/m2
14:45 94.2 °F 45.7 °F 29.92 in Calm   6.0 mph 19% 0.00 in 780.00 W/m2
14:50 94.1 °F 45.6 °F 29.92 in NW 3.0 mph 10.0 mph 19% 0.00 in 770.00 W/m2
14:55 94.0 °F 45.5 °F 29.92 in NW 2.0 mph 12.0 mph 19% 0.00 in 761.00 W/m2
15:05 93.8 °F 45.3 °F 29.92 in Calm   5.0 mph 19% 0.00 in 745.00 W/m2
15:10 93.9 °F 45.4 °F 29.92 in WNW 4.0 mph 5.0 mph 19% 0.00 in 737.00 W/m2
15:15 94.2 °F 45.7 °F 29.91 in Calm   11.0 mph 19% 0.00 in 726.00 W/m2
15:20 94.2 °F 45.7 °F 29.91 in Calm   16.0 mph 19% 0.00 in 714.00 W/m2
15:25 94.1 °F 45.6 °F 29.91 in WNW 4.0 mph 9.0 mph 19% 0.00 in 705.00 W/m2
15:30 94.1 °F 44.2 °F 29.91 in WNW 9.0 mph 11.0 mph 18% 0.00 in 693.00 W/m2
15:35 94.2 °F 45.7 °F 29.91 in WNW 5.0 mph 14.0 mph 19% 0.00 in 675.00 W/m2
15:40 94.4 °F 45.8 °F 29.91 in West 2.0 mph 9.0 mph 19% 0.00 in 670.00 W/m2
15:45 94.4 °F 45.8 °F 29.91 in West 6.0 mph 8.0 mph 19% 0.00 in 659.00 W/m2
15:50 94.4 °F 45.8 °F 29.91 in West 3.0 mph 14.0 mph 19% 0.00 in 642.00 W/m2
15:55 94.2 °F 44.2 °F 29.91 in NW 9.0 mph 11.0 mph 18% 0.00 in 635.00 W/m2
16:00 93.9 °F 45.4 °F 29.91 in Calm   12.0 mph 19% 0.00 in 617.00 W/m2
16:05 93.7 °F 45.3 °F 29.91 in West 9.0 mph 10.0 mph 19% 0.00 in 606.00 W/m2
16:10 93.6 °F 46.5 °F 29.91 in West 4.0 mph 9.0 mph 20% 0.00 in 589.00 W/m2
16:15 93.5 °F 46.5 °F 29.91 in NW 2.0 mph 5.0 mph 20% 0.00 in 580.00 W/m2
16:20 93.5 °F 45.1 °F 29.91 in WNW 6.0 mph 13.0 mph 19% 0.00 in 564.00 W/m2
16:25 93.4 °F 45.0 °F 29.91 in Calm   3.0 mph 19% 0.00 in 554.00 W/m2
16:30 93.4 °F 45.0 °F 29.91 in WNW 6.0 mph 11.0 mph 19% 0.00 in 540.00 W/m2
16:35 93.2 °F 44.9 °F 29.91 in WNW 8.0 mph 14.0 mph 19% 0.00 in 527.00 W/m2
16:40 93.2 °F 44.9 °F 29.91 in WNW 5.0 mph 8.0 mph 19% 0.00 in 510.00 W/m2
16:45 93.3 °F 46.3 °F 29.91 in WNW 9.0 mph 10.0 mph 20% 0.00 in 497.00 W/m2
16:50 93.4 °F 45.0 °F 29.91 in Calm   8.0 mph 19% 0.00 in 478.00 W/m2
16:55 93.4 °F 46.4 °F 29.91 in Calm   9.0 mph 20% 0.00 in 464.00 W/m2
17:00 93.3 °F 44.9 °F 29.91 in West 2.0 mph 9.0 mph 19% 0.00 in 439.00 W/m2
17:05 93.1 °F 46.1 °F 29.91 in WNW 1.0 mph 10.0 mph 20% 0.00 in 432.00 W/m2
17:10 93.0 °F 46.0 °F 29.91 in Calm   9.0 mph 20% 0.00 in 415.00 W/m2
17:15 92.8 °F 45.9 °F 29.91 in WNW 3.0 mph 4.0 mph 20% 0.00 in 399.00 W/m2
17:21 92.6 °F 47.0 °F 29.91 in NNW 5.0 mph 11.0 mph 21% 0.00 in 383.00 W/m2
17:26 92.5 °F 46.9 °F 29.91 in Calm   11.0 mph 21% 0.00 in 371.00 W/m2
17:31 92.4 °F 45.5 °F 29.91 in West 2.0 mph 8.0 mph 20% 0.00 in 352.00 W/m2
17:36 92.3 °F 46.8 °F 29.91 in West 3.0 mph 12.0 mph 21% 0.00 in 330.00 W/m2
17:41 92.3 °F 46.8 °F 29.91 in Calm   7.0 mph 21% 0.00 in 320.00 W/m2
17:46 92.0 °F 45.2 °F 29.91 in WNW 1.0 mph 8.0 mph 20% 0.00 in 301.00 W/m2
17:51 91.9 °F 47.7 °F 29.91 in Calm   9.0 mph 22% 0.00 in 287.00 W/m2
17:56 91.8 °F 48.8 °F 29.91 in NW 7.0 mph 7.0 mph 23% 0.00 in 265.00 W/m2
18:01 91.3 °F 45.9 °F 29.91 in NNW 2.0 mph 13.0 mph 21% 0.00 in 250.00 W/m2
18:06 91.0 °F 46.9 °F 29.91 in NNW 1.0 mph 12.0 mph 22% 0.00 in 236.00 W/m2
18:11 90.9 °F 48.0 °F 29.91 in WNW 1.0 mph 11.0 mph 23% 0.00 in 221.00 W/m2
18:16 90.8 °F 47.9 °F 29.91 in Calm   7.0 mph 23% 0.00 in 204.00 W/m2
18:21 90.6 °F 48.9 °F 29.91 in Calm   6.0 mph 24% 0.00 in 190.00 W/m2
18:26 90.3 °F 48.7 °F 29.91 in WNW 4.0 mph 9.0 mph 24% 0.00 in 172.00 W/m2
18:31 90.0 °F 48.4 °F 29.91 in West 1.0 mph 7.0 mph 24% 0.00 in 153.00 W/m2
18:36 89.7 °F 47.0 °F 29.91 in WNW 1.0 mph 10.0 mph 23% 0.00 in 141.00 W/m2
18:41 89.5 °F 48.0 °F 29.91 in NW 2.0 mph 9.0 mph 24% 0.00 in 121.00 W/m2
18:46 89.2 °F 49.9 °F 29.91 in Calm   8.0 mph 26% 0.00 in 104.00 W/m2
18:51 88.9 °F 49.6 °F 29.91 in Calm   8.0 mph 26% 0.00 in 86.00 W/m2
18:56 88.4 °F 50.2 °F 29.91 in Calm   6.0 mph 27% 0.00 in 69.00 W/m2
19:01 87.9 °F 49.8 °F 29.91 in Calm   6.0 mph 27% 0.00 in 56.00 W/m2
19:06 87.2 °F 50.2 °F 29.91 in Calm   4.0 mph 28% 0.00 in 46.00 W/m2
19:11 86.5 °F 50.5 °F 29.91 in NNW 3.0 mph 4.0 mph 29% 0.00 in 37.00 W/m2
19:16 86.0 °F 50.1 °F 29.91 in Calm   1.0 mph 29% 0.00 in 28.00 W/m2
19:21 85.5 °F 50.6 °F 29.91 in Calm     30% 0.00 in 21.00 W/m2
19:26 85.0 °F 50.1 °F 29.92 in Calm     30% 0.00 in 18.00 W/m2
19:29 84.8 °F 50.0 °F 29.91 in Calm   4.0 mph 30% 0.00 in 16.00 W/m2
19:34 84.4 °F 49.6 °F 29.91 in Calm   2.0 mph 30% 0.00 in 12.00 W/m2
19:39 84.0 °F 50.2 °F 29.92 in Calm   2.0 mph 31% 0.00 in 9.00 W/m2
19:44 83.5 °F 49.7 °F 29.92 in NNW 1.0 mph 1.0 mph 31% 0.00 in 7.00 W/m2
19:49 83.1 °F 48.5 °F 29.92 in Calm     30% 0.00 in 0.00 W/m2
19:54 82.8 °F 49.1 °F 29.92 in Calm   1.0 mph 31% 0.00 in 0.00 W/m2
19:59 82.4 °F 49.6 °F 29.92 in Calm     32% 0.00 in 0.00 W/m2
20:04 81.9 °F 49.2 °F 29.92 in Calm     32% 0.00 in 0.00 W/m2
20:09 81.4 °F 48.7 °F 29.92 in Calm     32% 0.00 in 0.00 W/m2
20:14 80.9 °F 49.1 °F 29.92 in Calm   1.0 mph 33% 0.00 in 0.00 W/m2
20:19 80.6 °F 48.9 °F 29.92 in Calm   2.0 mph 33% 0.00 in 0.00 W/m2
20:21 80.5 °F 48.8 °F 29.93 in Calm     33% 0.00 in 0.00 W/m2
20:26 80.2 °F 48.5 °F 29.93 in Calm     33% 0.00 in 0.00 W/m2
20:31 80.0 °F 48.3 °F 29.93 in NNW 2.0 mph 3.0 mph 33% 0.00 in 0.00 W/m2
20:36 79.8 °F 48.2 °F 29.93 in Calm     33% 0.00 in 0.00 W/m2
20:41 79.7 °F 48.1 °F 29.93 in NNW 4.0 mph 5.0 mph 33% 0.00 in 0.00 W/m2
20:43 79.7 °F 48.1 °F 29.93 in NNW 1.0 mph 6.0 mph 33% 0.00 in 0.00 W/m2
20:48 79.6 °F 48.0 °F 29.93 in Calm   3.0 mph 33% 0.00 in 0.00 W/m2
20:53 79.6 °F 48.0 °F 29.93 in Calm   1.0 mph 33% 0.00 in 0.00 W/m2
20:58 79.6 °F 48.0 °F 29.93 in Calm   1.0 mph 33% 0.00 in 0.00 W/m2
21:03 79.6 °F 48.0 °F 29.93 in Calm   1.0 mph 33% 0.00 in 0.00 W/m2
21:04 79.6 °F 48.0 °F 29.93 in North 3.0 mph 3.0 mph 33% 0.00 in 0.00 W/m2
21:09 79.6 °F 48.0 °F 29.93 in North 1.0 mph 3.0 mph 33% 0.00 in 0.00 W/m2
21:14 79.6 °F 48.0 °F 29.93 in Calm   3.0 mph 33% 0.00 in 0.00 W/m2
21:19 79.6 °F 48.0 °F 29.93 in North 1.0 mph 1.0 mph 33% 0.00 in 0.00 W/m2
21:24 79.5 °F 47.9 °F 29.93 in Calm   1.0 mph 33% 0.00 in 0.00 W/m2
21:29 79.5 °F 47.9 °F 29.93 in Calm   1.0 mph 33% 0.00 in 0.00 W/m2
21:34 79.5 °F 47.9 °F 29.93 in Calm   1.0 mph 33% 0.00 in 0.00 W/m2
21:39 79.4 °F 47.8 °F 29.93 in Calm     33% 0.00 in 0.00 W/m2
21:44 79.3 °F 47.7 °F 29.93 in Calm     33% 0.00 in 0.00 W/m2
21:49 79.3 °F 48.5 °F 29.93 in Calm     34% 0.00 in 0.00 W/m2
21:54 79.1 °F 48.3 °F 29.93 in Calm     34% 0.00 in 0.00 W/m2
21:59 78.9 °F 48.2 °F 29.94 in Calm     34% 0.00 in 0.00 W/m2
22:05 78.8 °F 48.1 °F 29.94 in Calm   1.0 mph 34% 0.00 in 0.00 W/m2
22:09 78.6 °F 47.9 °F 29.94 in Calm   1.0 mph 34% 0.00 in 0.00 W/m2
22:15 78.5 °F 47.8 °F 29.94 in Calm   1.0 mph 34% 0.00 in 0.00 W/m2
22:20 78.4 °F 47.7 °F 29.94 in Calm   1.0 mph 34% 0.00 in 0.00 W/m2
22:25 78.3 °F 47.7 °F 29.94 in Calm   1.0 mph 34% 0.00 in 0.00 W/m2
22:30 78.2 °F 47.6 °F 29.94 in Calm   3.0 mph 34% 0.00 in 0.00 W/m2
22:35 78.2 °F 47.6 °F 29.94 in NNE 1.0 mph 5.0 mph 34% 0.00 in 0.00 W/m2
22:40 78.2 °F 47.6 °F 29.94 in Calm   4.0 mph 34% 0.00 in 0.00 W/m2
22:45 78.2 °F 47.6 °F 29.94 in Calm   3.0 mph 34% 0.00 in 0.00 W/m2
22:50 78.2 °F 48.3 °F 29.94 in Calm   5.0 mph 35% 0.00 in 0.00 W/m2
22:54 78.2 °F 48.3 °F 29.94 in Calm   5.0 mph 35% 0.00 in 0.00 W/m2
22:59 78.1 °F 48.2 °F 29.94 in Calm   4.0 mph 35% 0.00 in 0.00 W/m2
23:04 78.1 °F 48.2 °F 29.94 in NE 1.0 mph 4.0 mph 35% 0.00 in 0.00 W/m2
23:09 78.1 °F 48.2 °F 29.94 in ENE 4.0 mph 5.0 mph 35% 0.00 in 0.00 W/m2
23:14 78.0 °F 48.2 °F 29.94 in ENE 5.0 mph 5.0 mph 35% 0.00 in 0.00 W/m2
23:19 78.0 °F 48.2 °F 29.94 in Calm   6.0 mph 35% 0.00 in 0.00 W/m2
23:24 77.9 °F 48.1 °F 29.94 in ENE 1.0 mph 6.0 mph 35% 0.00 in 0.00 W/m2
23:29 77.9 °F 48.1 °F 29.94 in ENE 1.0 mph 6.0 mph 35% 0.00 in 0.00 W/m2
23:34 77.8 °F 48.0 °F 29.94 in East 2.0 mph 6.0 mph 35% 0.00 in 0.00 W/m2
23:39 77.8 °F 48.0 °F 29.94 in Calm   6.0 mph 35% 0.00 in 0.00 W/m2
23:45 77.7 °F 47.9 °F 29.94 in East 8.0 mph 8.0 mph 35% 0.00 in 0.00 W/m2
23:50 77.6 °F 47.8 °F 29.94 in ESE 5.0 mph 12.0 mph 35% 0.00 in 0.00 W/m2
23:55 77.5 °F 47.0 °F 29.94 in East 7.0 mph 12.0 mph 34% 0.00 in 0.00 W/m2
Foresthill Weather
 WU-history PHP script courtesy of   Juneau County Weather.
powered by Cumulus v1.9.3 (1059)
Ambient Weather VWS v14.00
Top Contact Website Map Copyright © 2007 - 2018 Foresthillweather.com Never base important decisions on this or any weather information obtained from the Internet